Tucson, Arizona, United States (85701)
Lat: 32.22N, Lon: 110.93W
Wx Zone: AZZ504
Local Info
Past Weather Observations for Wednesday, December 17, 2014

NOTE: This archive is for the closest National Weather Service station to Tucson. Information may differ from the station used for current weather conditions.

Click here for Long-term Archive

Time Weather Temperature Dewpoint Humidity Pressure Winds Precip Visibility
23:58
Partly Cloudy
46°F / 8°C 46°F / 8°C 100% 30.12 in
(1020 mb)
SSE 2.3 mph
(SSE 4 kph)
- 10SM
22:58
Clear
48°F / 9°C 46°F / 8°C 94% 30.15 in
(1021 mb)
SE 2.3 mph
(SE 4 kph)
- 10SM
22:08
Mostly Cloudy
48°F / 9°C 48°F / 9°C 100% 30.15 in
(1021 mb)
SE 2.3 mph
(SE 4 kph)
- 10SM
22:03
Overcast
48°F / 9°C 48°F / 9°C 100% 30.15 in
(1021 mb)
SSE 3.5 mph
(SSE 6 kph)
- 10SM
21:58
Mostly Cloudy
50°F / 10°C 48°F / 9°C 94% 30.15 in
(1021 mb)
SSE 5.8 mph
(SSE 9 kph)
- 10SM
21:48
Mostly Cloudy
50°F / 10°C 48°F / 9°C 94% 30.15 in
(1021 mb)
SE 4.6 mph
(SE 7 kph)
- 10SM
21:43
Overcast
50°F / 10°C 48°F / 9°C 94% 30.15 in
(1021 mb)
SE 5.8 mph
(SE 9 kph)
- 10SM
20:58
Mostly Cloudy
48°F / 9°C 48°F / 9°C 100% 30.12 in
(1020 mb)
E 4.6 mph
(E 7 kph)
0.00 in
(0.00 mm)
10SM
20:56
Mostly Cloudy
48°F / 9°C 48°F / 9°C 100% 30.12 in
(1020 mb)
E 4.6 mph
(E 7 kph)
- 10SM
20:41
Partly Cloudy
Drizzle
48°F / 9°C 48°F / 9°C 100% 30.12 in
(1020 mb)
NE 2.3 mph
(NE 4 kph)
- 10SM
20:18
Partly Cloudy
48°F / 9°C 48°F / 9°C 100% 30.12 in
(1020 mb)
NNW 5.8 mph
(NNW 9 kph)
- 10SM
20:00
Mostly Cloudy
Drizzle
48°F / 9°C 48°F / 9°C 100% 30.12 in
(1020 mb)
NW 4.6 mph
(NW 7 kph)
- 7SM
19:58
Mostly Cloudy
48°F / 9°C 48°F / 9°C 100% 30.12 in
(1020 mb)
NW 3.5 mph
(NW 6 kph)
0.05 in
(1.27 mm)
7SM
19:55
Mostly Cloudy
48°F / 9°C 48°F / 9°C 100% 30.12 in
(1020 mb)
W 5.8 mph
(W 9 kph)
- 7SM
19:40
Partly Cloudy
Rain
48°F / 9°C 48°F / 9°C 100% 30.12 in
(1020 mb)
W 3.5 mph
(W 6 kph)
- 10SM
19:36
Mostly Cloudy
48°F / 9°C 48°F / 9°C 100% 30.12 in
(1020 mb)
SSW 3.5 mph
(SSW 6 kph)
- 10SM
19:14
Partly Cloudy
Rain
48°F / 9°C 48°F / 9°C 100% 30.12 in
(1020 mb)
Calm - 10SM
19:04
Partly Cloudy
Rain
48°F / 9°C 48°F / 9°C 100% 30.12 in
(1020 mb)
Calm - 8SM
18:59
Partly Cloudy
Light Rain
48°F / 9°C 48°F / 9°C 100% 30.12 in
(1020 mb)
WNW 1.2 mph
(WNW 2 kph)
- 10SM
18:58
Clear
48°F / 9°C 48°F / 9°C 100% 30.12 in
(1020 mb)
W 3.5 mph
(W 6 kph)
0.05 in
(1.27 mm)
10SM
18:31
Clear
50°F / 10°C 48°F / 9°C 94% 30.09 in
(1019 mb)
NW 3.5 mph
(NW 6 kph)
- 10SM
18:26
Clear
50°F / 10°C 48°F / 9°C 94% 30.09 in
(1019 mb)
NW 4.6 mph
(NW 7 kph)
- 9SM
18:16
Clear
50°F / 10°C 48°F / 9°C 94% 30.09 in
(1019 mb)
NW 5.8 mph
(NW 9 kph)
- 10SM
18:03
Overcast
Rain
50°F / 10°C 48°F / 9°C 94% 30.09 in
(1019 mb)
NNW 4.6 mph
(NNW 7 kph)
- 8SM
17:58
Overcast
Rain
50°F / 10°C 48°F / 9°C 94% 30.09 in
(1019 mb)
NNW 5.8 mph
(NNW 9 kph)
0.10 in
(2.54 mm)
10SM
17:53
Overcast
Rain
50°F / 10°C 48°F / 9°C 94% 30.09 in
(1019 mb)
NNW 6.9 mph
(NNW 11 kph)
- 10SM
17:48
Overcast
Rain
50°F / 10°C 48°F / 9°C 94% 30.09 in
(1019 mb)
N 6.9 mph
(N 11 kph)
- 9SM
17:43
Overcast
Rain
50°F / 10°C 48°F / 9°C 94% 30.09 in
(1019 mb)
N 8.1 mph
(N 13 kph)
- 8SM
17:23
Overcast
Rain
50°F / 10°C 48°F / 9°C 94% 30.09 in
(1019 mb)
N 12.7 mph
(N 20 kph)
- 7SM
17:18
Overcast
Rain
50°F / 10°C 48°F / 9°C 94% 30.09 in
(1019 mb)
N 11.5 mph
(N 19 kph)
- 4SM
17:13
Overcast
Heavy Rain
50°F / 10°C 48°F / 9°C 94% 30.09 in
(1019 mb)
N 11.5 mph
(N 19 kph)
- 3SM
17:08
Overcast
Rain
50°F / 10°C 48°F / 9°C 94% 30.09 in
(1019 mb)
NNW 11.5 mph
(NNW 19 kph)
- 5SM
16:58
Mostly Cloudy
Heavy Rain
52°F / 11°C 48°F / 9°C 88% 30.06 in
(1018 mb)
NW 10.4 mph
(NW 17 kph)
0.03 in
(0.76 mm)
4SM
16:56
Mostly Cloudy
Heavy Rain
52°F / 11°C 48°F / 9°C 88% 30.06 in
(1018 mb)
NNW 10.4 mph
(NNW 17 kph)
- 4SM
16:21
Mostly Cloudy
Drizzle
52°F / 11°C 50°F / 10°C 94% 30.06 in
(1018 mb)
NE 9.2 mph
(NE 15 kph)
- 10SM
15:58
Mostly Cloudy
55°F / 13°C 46°F / 8°C 72% 30.04 in
(1017 mb)
N 10.4 mph
(N 17 kph)
0.00 in
(0.00 mm)
10SM
15:11
Partly Cloudy
54°F / 12°C 46°F / 8°C 77% 30.04 in
(1017 mb)
SW 5.8 mph
(SW 9 kph)
- 10SM
14:58
Mostly Cloudy
Light Rain
54°F / 12°C 48°F / 9°C 82% 30.04 in
(1017 mb)
SW 5.8 mph
(SW 9 kph)
0.15 in
(3.81 mm)
10SM
14:53
Mostly Cloudy
Drizzle
54°F / 12°C 48°F / 9°C 82% 30.04 in
(1017 mb)
SSE 4.6 mph
(SSE 7 kph)
- 8SM
14:44
Mostly Cloudy
54°F / 12°C 48°F / 9°C 82% 30.04 in
(1017 mb)
SW 3.5 mph
(SW 6 kph)
- 7SM
14:24
Mostly Cloudy
Light Rain
52°F / 11°C 48°F / 9°C 88% 30.06 in
(1018 mb)
S 5.8 mph
(S 9 kph)
- 7SM
14:19
Mostly Cloudy
Thunder Storms
52°F / 11°C 48°F / 9°C 88% 30.06 in
(1018 mb)
SSE 2.3 mph
(SSE 4 kph)
- 3SM
14:09
Mostly Cloudy
Thunder Storms
54°F / 12°C 48°F / 9°C 82% 30.06 in
(1018 mb)
Variable 2.3 mph
(Variable 4 kph)
- 10SM
14:02
Partly Cloudy
Light Rain
54°F / 12°C 46°F / 8°C 77% 30.06 in
(1018 mb)
N 3.5 mph
(N 6 kph)
- 10SM
13:58
Partly Cloudy
54°F / 12°C 46°F / 8°C 77% 30.04 in
(1017 mb)
Variable 2.3 mph
(Variable 4 kph)
0.00 in
(0.00 mm)
10SM
13:01
Partly Cloudy
54°F / 12°C 48°F / 9°C 82% 30.06 in
(1018 mb)
SSW 9.2 mph
(SSW 15 kph)
- 10SM
12:58
Partly Cloudy
Light Rain
52°F / 11°C 50°F / 10°C 94% 30.06 in
(1018 mb)
SSW 10.4 mph
(SSW 17 kph)
0.04 in
(1.02 mm)
10SM
12:45
Mostly Cloudy
Light Rain
52°F / 11°C 48°F / 9°C 88% 30.06 in
(1018 mb)
W 9.2 mph
(W 15 kph)
- 10SM
12:40
Mostly Cloudy
Light Rain
52°F / 11°C 48°F / 9°C 88% 30.09 in
(1019 mb)
WNW 11.5 mph
(WNW 19 kph)
- 6SM
12:35
Overcast
Rain
52°F / 11°C 46°F / 8°C 82% 30.09 in
(1019 mb)
SSW 12.7 mph
(SSW 20 kph)
- 7SM
12:29
Overcast
Light Rain
52°F / 11°C 46°F / 8°C 82% 30.09 in
(1019 mb)
SSE 10.4 mph
(SSE 17 kph)
- 10SM
11:59
Mostly Cloudy
Drizzle
54°F / 12°C 46°F / 8°C 77% 30.09 in
(1019 mb)
S 10.4 mph
(S 17 kph)
- 10SM
11:58
Mostly Cloudy
54°F / 12°C 46°F / 8°C 77% 30.09 in
(1019 mb)
S 11.5 mph
(S 19 kph)
- 10SM
11:48
Mostly Cloudy
54°F / 12°C 46°F / 8°C 77% 30.09 in
(1019 mb)
S 11.5 mph
(S 19 kph)
- 10SM
10:58
Partly Cloudy
54°F / 12°C 46°F / 8°C 77% 30.12 in
(1020 mb)
N 4.6 mph
(N 7 kph)
- 10SM
09:58
Partly Cloudy
50°F / 10°C 46°F / 8°C 88% 30.09 in
(1019 mb)
ENE 5.8 mph
(ENE 9 kph)
- 10SM
08:58
Mostly Cloudy
48°F / 9°C 45°F / 7°C 87% 30.09 in
(1019 mb)
ENE 4.6 mph
(ENE 7 kph)
- 10SM
07:58
Mostly Cloudy
46°F / 8°C 45°F / 7°C 93% 30.06 in
(1018 mb)
E 8.1 mph
(E 13 kph)
0.04 in
(1.02 mm)
10SM
07:53
Mostly Cloudy
46°F / 8°C 45°F / 7°C 93% 30.06 in
(1018 mb)
E 8.1 mph
(E 13 kph)
- 10SM
07:38
Overcast
Light Rain
46°F / 8°C 45°F / 7°C 93% 30.06 in
(1018 mb)
ENE 6.9 mph
(ENE 11 kph)
- 5SM
07:13
Overcast
Light Rain
46°F / 8°C 45°F / 7°C 93% 30.06 in
(1018 mb)
E 8.1 mph
(E 13 kph)
- 9SM
07:03
Overcast
Light Rain
46°F / 8°C 45°F / 7°C 93% 30.06 in
(1018 mb)
E 5.8 mph
(E 9 kph)
- 8SM
06:58
Overcast
Drizzle
46°F / 8°C 45°F / 7°C 93% 30.06 in
(1018 mb)
E 5.8 mph
(E 9 kph)
0.04 in
(1.02 mm)
10SM
06:43
Mostly Cloudy
Light Rain
46°F / 8°C 45°F / 7°C 93% 30.06 in
(1018 mb)
SE 8.1 mph
(SE 13 kph)
- 10SM
06:38
Mostly Cloudy
Light Rain
46°F / 8°C 43°F / 6°C 87% 30.06 in
(1018 mb)
SE 9.2 mph
(SE 15 kph)
- 9SM
06:28
Partly Cloudy
Light Rain
46°F / 8°C 43°F / 6°C 87% 30.06 in
(1018 mb)
SE 10.4 mph
(SE 17 kph)
- 9SM
05:58
Partly Cloudy
Rain
46°F / 8°C 43°F / 6°C 87% 30.06 in
(1018 mb)
SSE 8.1 mph
(SSE 13 kph)
0.06 in
(1.52 mm)
10SM
05:39
Partly Cloudy
Light Rain
46°F / 8°C 41°F / 5°C 82% 30.04 in
(1017 mb)
S 8.1 mph
(S 13 kph)
- 9SM
05:24
Partly Cloudy
Light Rain
46°F / 8°C 41°F / 5°C 82% 30.04 in
(1017 mb)
S 8.1 mph
(S 13 kph)
- 10SM
05:14
Partly Cloudy
Light Rain
48°F / 9°C 41°F / 5°C 76% 30.04 in
(1017 mb)
S 9.2 mph
(S 15 kph)
- 9SM
04:59
Partly Cloudy
Light Rain
48°F / 9°C 41°F / 5°C 76% 30.04 in
(1017 mb)
S 6.9 mph
(S 11 kph)
- 10SM
04:58
Partly Cloudy
48°F / 9°C 43°F / 6°C 82% 30.04 in
(1017 mb)
SW 6.9 mph
(SW 11 kph)
0.00 in
(0.00 mm)
10SM
04:46
Partly Cloudy
48°F / 9°C 43°F / 6°C 82% 30.04 in
(1017 mb)
SSE 12.7 mph
(SSE 20 kph)
- 10SM
04:18
Mostly Cloudy
Drizzle
50°F / 10°C 43°F / 6°C 76% 30.04 in
(1017 mb)
Calm - 10SM
03:58
Mostly Cloudy
48°F / 9°C 45°F / 7°C 87% 30.04 in
(1017 mb)
Calm - 10SM
02:58
Mostly Cloudy
50°F / 10°C 43°F / 6°C 76% 30.04 in
(1017 mb)
NE 4.6 mph
(NE 7 kph)
- 10SM
01:58
Overcast
50°F / 10°C 43°F / 6°C 76% 30.04 in
(1017 mb)
Calm 0.00 in
(0.00 mm)
10SM
01:50
Overcast
50°F / 10°C 43°F / 6°C 76% 30.04 in
(1017 mb)
Calm - 10SM
01:47
Mostly Cloudy
Light Rain
50°F / 10°C 43°F / 6°C 76% 30.04 in
(1017 mb)
Calm - 10SM
01:37
Mostly Cloudy
Drizzle
50°F / 10°C 43°F / 6°C 76% 30.04 in
(1017 mb)
S 3.5 mph
(S 6 kph)
- 8SM
01:32
Partly Cloudy
Light Rain
50°F / 10°C 43°F / 6°C 76% 30.04 in
(1017 mb)
S 4.6 mph
(S 7 kph)
- 10SM
01:25
Partly Cloudy
50°F / 10°C 43°F / 6°C 76% 30.04 in
(1017 mb)
SSE 3.5 mph
(SSE 6 kph)
- 10SM
01:02
Mostly Cloudy
Drizzle
50°F / 10°C 41°F / 5°C 71% 30.04 in
(1017 mb)
S 5.8 mph
(S 9 kph)
- 10SM
00:58
Partly Cloudy
50°F / 10°C 41°F / 5°C 71% 30.04 in
(1017 mb)
S 5.8 mph
(S 9 kph)
0.00 in
(0.00 mm)
10SM
00:47
Partly Cloudy
50°F / 10°C 41°F / 5°C 71% 30.04 in
(1017 mb)
S 4.6 mph
(S 7 kph)
- 10SM
00:39
Partly Cloudy
Drizzle
50°F / 10°C 43°F / 6°C 76% 30.04 in
(1017 mb)
SSE 5.8 mph
(SSE 9 kph)
- 10SM
Time Weather Temperature Dewpoint Humidity Pressure Winds Precip Visibility


Weather for websites

WeatherForYou.com, LLC is not responsible for any damages or problems caused by this service. Current weather conditions are obtained from the closest station including government and personal stations which may have varying degrees of accuracy. Weather forecasts are derived from the NOAA NDFD. Like all things, this site belongs to Jesus Christ... He just trusts me to maintain it. If you have any questions or comments email webmaster@weatherforyou.com

Copyright © 2014, WeatherForYou.com LLC. All rights reserved.